This demonstration page uses our WeatherBlox Daily Observations layout. Learn more.

Left ArrowRight Arrow

Hourly Observations for May 1, 2015

Temp ( °F °C ) Dew Point ( °F °C ) Humidity (%) Winds ( mph kmh ) Pressure ( in mb ) Visibility ( mi km ) Precip ( " mm )
12:53 am 00:53 Clear 69 20.6 33 0.6 26 26 NNW 5 7 29.81 1010 10 16 0.00 0.00
1:53 am 01:53 Clear 65 18.3 34 1.1 32 32 Calm 29.81 1010 10 16 0.00 0.00
2:53 am 02:53 Clear 67 19.4 32 0 27 27 NNW 7 11 29.81 1009 10 16 0.00 0.00
3:53 am 03:53 Clear 68 20 30 -1.1 24 24 NNW 7 11 29.81 1009 10 16 0.00 0.00
4:53 am 04:53 Clear 66 18.9 29 -1.7 25 25 NNW 6 9 29.80 1009 10 16 0.00 0.00
5:53 am 05:53 Clear 64 17.8 30 -1.1 28 28 NNW 6 9 29.80 1009 10 16 0.00 0.00
6:53 am 06:53 Sunny 64 17.8 32 0 30 30 NNW 6 9 29.82 1010 10 16 0.00 0.00
7:53 am 07:53 Sunny 72 22.2 32 0 23 23 NNW 7 11 29.83 1010 10 16 0.00 0.00
8:35 am 08:35 Sunny 77 25 28 -2 17 17 undefined N/A 29.85 1011 10 16 0.00 0.00
8:53 am 08:53 Sunny 78 25.6 29 -1.7 16 16 N 9 15 29.83 1010 10 16 0.00 0.00
9:53 am 09:53 Sunny 81 27.2 28 -2.2 14 14 N 12 19 29.83 1010 10 16 0.00 0.00
10:53 am 10:53 Sunny 85 29.4 31 -0.6 14 14 N 6 9 29.82 1010 10 16 0.00 0.00
11:53 am 11:53 Sunny 88 31.1 30 -1.1 12 12 VRB 3 6 29.81 1010 10 16 0.00 0.00
12:53 pm 12:53 Sunny 90 32.2 29 -1.7 11 11 SE 5 7 29.79 1009 10 16 0.00 0.00
1:53 pm 13:53 Sunny 91 32.8 28 -2.2 10 10 VRB 5 7 29.77 1008 10 16 0.00 0.00
2:53 pm 14:53 Sunny 92 33.3 32 0 12 12 S 9 15 29.76 1008 10 16 0.00 0.00
3:53 pm 15:53 Sunny 93 33.9 36 2.2 13 13 SE 8 13 29.73 1007 10 16 0.00 0.00
4:53 pm 16:53 Sunny 90 32 28 -2 11 11 NW 10 17 29.80 1009 10 16 0.00 0.00
5:53 pm 17:53 Sunny 92 33.3 39 3.9 16 16 S 10 17 29.71 1006 10 16 0.00 0.00
6:53 pm 18:53 Sunny 89 31.7 39 3.9 17 17 S 10 17 29.70 1006 10 16 0.00 0.00
7:53 pm 19:53 Sunny 83 28.3 40 4.4 22 22 S 7 11 29.71 1006 10 16 0.00 0.00
8:53 pm 20:53 Clear 80 26.7 40 4.4 24 24 Calm 29.72 1007 10 16 0.00 0.00
9:53 pm 21:53 Clear 74 23.3 44 6.7 34 34 N 5 7 29.75 1008 10 16 0.00 0.00
10:53 pm 22:53 Clear 69 20.6 46 7.8 44 44 NE 5 7 29.77 1008 10 16 0.00 0.00
11:53 pm 23:53 Clear 68 20 45 7.2 44 44 Calm 29.77 1008 10 16 0.00 0.00

Powered by AerisWeather